EHI
0 0 0 0 0 0 0 0 0 0 0 0 0 0 0 0 0 0 0 0 0 0 0 0 0 0 0 0 0 0 0 0 0 0 0 0 0 0 0 0 0 0 0
0 0 0 0 0 0 0 0 0 0 0 0 0 0 0 0 0 0 0 0 0 0 0 0 0 0 0 0 0 0 0 0 0 0 0 0 0 0 0 0 0 0 0
0 0 0 0 0 0 0 0 0 0 0 0 0 0 0 0 0 0 0 0 0 0 0 0 0 0 0 0 0 0 0 0 0 0 0 0 0 0 0 0 0 0 0
0 0 0 0 0 0 0 0 0 0 0 0 0 0 0 0 0 0 0 0 0 0 0 0 0 0 0 0 0 0 0 0 0 0 0 0 0 0 0 0 0 0 0
0 0 0 0 0 0 0 0 0 0 0 0 0 0 0 0 0 0 0 0 0 0 0 0 0 0 0 0 0 0 0 0 0 0 0 0 0 0 0 0 0 0 0
0 0 0 0 0 0 0 0 0 0 0 0 0 0 0 0 0 0 0 0 0 0 0 0 0 0 0 0 0 0 0 0 0 0 0 0 0 0 0 0 0 0 0
0 0 0 0 0 0 0 0 0 0 0 0 0 0 0 0 0 0 0 0 0 0 0 0 0 0 0 0 0 0 0 0 0 0 0 0 0 0 0 0 0 0 0
0 0 0 0 0 0 0 0 0 0 0 0 0 0 0 0 0 0 0 0 0 0 0 0 0 0 0 0 0 0 0 0 0 0 0 0 0 0 0 0 0 0 0
0 0 0 0 0 0 0 0 0 0 0 0 0 0 0 0 0 0 0 0 0 0 0 0 0 0 0 0 0 0 0 0 0 0 0 0 0 0 0 0 0 0 0
0 0 0 0 0 0 0 0 0 0 0 0 0 0 0 0 0 0 0 0 0 0 0 0 0 0 0 0 0 0 0 0 0 0 0 0 0 0 0 0 0 0 0
0 0 0 0 0 0 0 0 0 0 0 0 0 0 0 0 0 0 0 0 0 0 0 0 0 0 0 0 0 0 0 0 0 0 0 0 0 0 0 0 0 0 0
0 0 0 0 0 0 0 0 0 0 0 0 0 0 0 0 0 0 0 0 0 0 0 0 0 0 0 0 0 0 0 0 0 0 0 0 0 0 0 0 0 0 0
0 0 0 0 0 0 0 0 0 0 0 0 0 0 0 0 0 0 0 0 0 0 0 0 0 0 0 0 0 0 0 0 0 0 0 0 0 0 0 0 0 0 0
0 0 0 0 0 0 0 0 0 0 0 0 0 0 0 0 0 0 0 0 0 0 0 0 0 0 0 0 0 0 0 0 0 0 0 0 0 0 0 0 0 0 0
0 0 0 0 0 0 0 0 0 0 0 0 0 0 0 0 0 0 0 0 0 0 0 0 0 0 0 0 0 0 0 0 0 0 0 0 0 0 0 0 0 0 0
0 0 0 0 0 0 0 0 0 0 0 0 0 0 0 0 0 0 0 0 0 0 0 0 0 0 0 0 0 0 0 0 0 0 0 0 0 0 0 0 0 0 0
0 0 0 0 0 0 0 0 0 0 0 0 0 0 0 0 0 0 0 0 0 0 0 0 0 0 0 0 0 0 0 0 0 0 0 0 0 0 0 0 0 0 0
0 0 0 0 0 0 0 0 0 0 0 0 0 0 0 0 0 0 0 0 0 0 0 0 0 0 0 0 0 0 0 0 0 0 0 0 0 0 0 0 0 0 0
0 0 0 0 0 0 0 0 0 0 0 0 0 0 0 0 0 0 0 0 0 0 0 0 0 0 0 0 0 0 0 0 0 0 0 0 0 0 0 0 0 0 0
0 0 0 0 0 0 0 0 0 0 0 0 0 0 0 0 0 0 0 0 0 0 0 0 0 0 0 0 0 0 0 0 0 0 0 0 0 0 0 0 0 0 0
0 0 0 0 0 0 0 0 0 0 0 0 0 0 0 0 0 0 0 0 0 0 0 0 0 0 0 0 0 0 0 0 0 0 0 0 0 0 0 0 0 0 0
0 0 0 0 0 0 0 0 0 0 0 0 0 0 0 0 0 0 0 0 0 0 0 0 0 0 0 0 0 0 0 0 0 0 0 0 0 0 0 0 0 0 0
0 0 0 0 0 0 0 0 0 0 0 0 0 0 0 0 0 0 0 0 0 0 0 0 0 0 0 0 0 0 0 0 0 0 0 0 0 0 0 0 0 0 0
0 0 0 0 0 0 0 0 0 0 0 0 0 0 0 0 0 0 0 0 0 0 0 0 0 0 0 0 0 0 0 0 0 0 0 0 0 0 0 0 0 0 0
0 0 0 0 0 0 0 0 0 0 0 0 0 0 0 0 0 0 0 0 0 0 0 0 0 0 0 0 0 0 0 0 0 0 0 0 0 0 0 0 0 0 0
0 0 0 0 0 0 0 0 0 0 0 0 0 0 0 0 0 0 0 0 0 0 0 0 0 0 0 0 0 0 0 0 0 0 0 0 0 0 0 0 0 0 0
Wind_Speed
0 1 1 2 3 3 3 4 4 5 5 5 6 8 8 9 9 8 9 23 29 29 30 31 31 32 32 33 33 33 32 31 30 29 28 27 26 24 23 21 20 19 19
2 2 2 2 3 3 3 3 5 5 4 4 6 7 8 8 8 9 8 14 25 28 30 31 31 31 32 33 33 34 33 32 31 30 29 28 26 25 23 22 20 20 18
3 3 2 3 3 3 4 3 5 3 5 6 7 8 8 7 9 10 11 9 11 22 28 30 30 32 32 33 33 33 33 33 32 31 30 28 26 25 24 23 21 20 19
4 3 3 3 3 3 3 4 3 4 5 5 6 7 7 7 9 11 10 10 9 11 17 28 31 32 32 33 33 33 33 32 32 31 30 28 27 26 24 23 22 21 20
4 3 3 3 4 3 3 5 4 4 5 6 6 6 6 8 9 12 11 12 11 12 10 20 29 30 31 32 33 33 32 31 31 31 29 27 26 26 25 24 22 21 20
4 4 3 4 3 3 3 3 5 5 5 6 9 9 7 9 8 8 11 10 11 13 13 14 14 18 28 30 31 31 31 30 30 30 28 27 26 25 25 24 23 22 21
5 4 3 3 3 3 4 5 4 5 4 4 5 8 8 8 8 7 7 8 11 13 12 14 11 11 12 24 28 29 29 29 28 26 25 25 25 25 25 24 24 23 21
4 4 3 3 3 3 4 5 4 3 4 4 4 9 8 8 6 10 7 8 10 9 11 14 13 14 12 9 17 28 28 28 26 25 23 23 23 24 24 24 24 23 22
4 4 4 4 4 3 4 5 5 5 5 4 3 4 8 9 11 9 10 9 8 8 10 10 14 14 14 11 11 19 26 26 25 24 23 22 22 23 24 24 24 23 23
4 4 4 4 4 4 5 6 5 4 5 6 5 4 6 7 9 11 10 7 9 10 10 11 12 13 13 11 13 22 25 25 24 24 24 24 23 24 24 24 24 23 22
4 5 5 4 5 4 6 6 6 6 5 6 6 5 6 6 6 7 13 15 12 8 8 10 10 10 12 11 9 16 24 23 23 24 24 25 25 25 24 24 23 22 21
4 5 5 5 5 5 6 7 6 7 6 7 7 6 6 6 7 7 10 14 15 13 11 10 10 9 9 8 12 22 23 22 22 23 24 24 25 24 24 23 21 21 20
4 6 6 5 5 6 7 7 7 7 7 7 7 7 7 8 8 8 10 12 15 14 12 10 7 8 9 8 10 22 21 23 22 22 22 23 23 22 21 21 21 20 20
5 6 6 6 7 7 8 6 6 7 7 8 10 9 8 8 8 8 9 10 14 14 12 10 7 7 8 8 13 22 14 22 23 22 22 21 20 20 20 21 21 22 21
5 6 6 6 7 7 7 7 7 8 8 8 9 10 10 9 8 8 8 8 10 15 15 12 9 7 8 8 15 12 10 19 23 23 21 20 19 20 20 21 22 22 22
6 6 6 7 7 7 8 7 8 8 9 10 9 11 12 10 9 9 9 9 9 12 15 11 11 10 11 12 18 12 11 22 22 22 22 21 20 21 21 22 23 23 22
7 7 7 7 7 7 8 8 9 9 10 12 12 12 14 13 11 10 9 9 10 10 14 14 11 10 11 11 12 10 10 10 11 20 21 21 22 23 23 23 24 23 23
7 7 7 7 7 8 8 9 11 11 11 13 14 14 15 13 13 11 10 11 10 11 13 17 13 10 10 10 11 10 10 10 9 18 22 22 23 24 25 25 24 24 23
6 6 6 7 8 9 9 10 10 12 13 14 15 15 15 14 13 11 11 11 11 12 11 13 13 10 8 8 9 10 10 9 11 14 19 20 22 24 25 25 25 24 24
6 7 7 8 8 9 10 11 11 13 14 14 13 13 13 12 13 12 12 12 12 11 11 10 11 10 9 7 6 8 10 7 9 10 14 16 19 22 22 24 25 25 24
7 6 7 8 8 8 8 11 12 12 11 10 9 9 10 14 18 15 11 9 9 9 9 9 11 10 9 6 7 7 10 9 9 9 7 7 8 8 10 16 21 22 22
6 6 7 8 9 8 16 22 17 8 7 7 8 8 10 12 16 21 24 23 19 12 10 10 10 10 10 8 8 8 9 9 8 3 4 8 7 9 8 8 16 20 21
6 7 7 8 9 11 19 20 21 10 5 7 7 8 9 11 16 10 17 22 17 20 20 13 12 12 12 10 10 11 10 10 10 6 7 10 6 8 8 10 19 20 20
6 6 7 8 8 11 17 18 19 7 5 7 7 8 9 10 13 16 12 8 9 11 15 11 10 12 12 12 11 12 11 11 10 8 7 8 6 6 8 7 16 20 20
7 7 7 7 7 9 15 17 16 4 6 7 7 8 10 10 20 24 10 8 10 10 13 17 20 18 20 19 14 7 6 7 8 6 5 6 5 5 6 7 11 18 20
7 7 7 6 6 7 12 15 15 4 6 6 6 7 14 17 22 21 9 7 11 10 7 9 12 14 12 13 16 7 5 6 6 6 4 4 4 4 5 4 6 7 10
Wind_Direction
80 316 300 299 297 292 295 299 302 304 308 307 311 322 314 310 306 305 311 314 317 316 313 311 308 305 301 297 293 288 284 280 277 274 272 272 272 274 274 277 278 274 254
189 225 266 280 282 283 284 291 296 300 298 298 304 309 305 300 299 300 302 309 311 312 312 309 307 304 301 297 292 287 282 278 275 271 268 267 268 269 271 273 278 275 263
198 211 241 266 274 279 291 297 297 300 311 315 310 306 303 298 298 300 302 298 300 306 307 307 306 303 299 297 293 287 280 276 273 268 264 263 264 265 268 269 273 276 268
205 211 236 259 268 279 291 297 295 310 308 305 303 302 302 299 298 298 295 293 293 294 300 303 302 300 299 298 295 288 281 275 271 267 261 258 260 262 265 267 269 273 270
217 217 238 256 269 280 289 308 325 304 304 307 304 299 299 298 294 295 292 290 287 289 290 297 300 300 298 295 294 292 284 275 271 266 259 255 256 258 262 265 267 271 271
227 228 244 260 272 281 287 291 296 296 289 294 307 309 296 293 288 283 284 289 289 290 291 290 291 293 294 296 295 294 290 280 274 269 259 254 253 255 259 262 265 268 272
232 237 260 270 272 271 277 288 291 297 293 291 302 308 298 285 281 283 279 284 287 289 287 290 287 285 287 293 298 298 295 287 278 273 265 258 253 254 256 260 263 265 270
237 247 246 257 266 272 284 290 291 285 289 308 302 313 309 305 298 309 290 287 288 288 292 294 290 288 284 283 287 295 297 292 285 278 274 266 260 256 255 258 261 263 266
243 247 254 253 261 255 266 277 279 275 289 290 262 276 302 305 314 299 301 295 288 289 290 292 292 290 290 287 287 292 292 290 284 279 277 273 267 261 258 258 259 262 264
246 247 252 254 256 253 259 271 286 270 277 291 288 251 255 280 298 305 305 295 292 296 295 298 297 293 290 286 286 292 293 289 284 279 276 274 270 265 261 258 258 260 263
246 251 253 252 252 251 256 263 272 267 260 270 280 280 280 278 265 283 300 306 304 295 295 296 294 291 291 287 288 291 293 292 285 280 275 271 269 266 262 260 257 261 264
248 252 253 247 248 251 256 259 259 259 259 263 269 270 274 276 284 281 290 299 302 303 300 297 292 293 292 291 298 302 300 297 293 284 276 271 268 266 263 263 263 267 269
240 249 252 248 250 251 256 257 257 256 256 260 263 266 265 264 269 273 281 291 296 298 296 291 284 295 298 301 301 303 303 302 298 292 282 272 267 265 267 270 272 275 278
235 243 244 246 249 255 263 260 260 259 262 259 269 267 268 269 264 263 269 284 294 296 294 290 292 285 292 296 295 305 304 304 301 295 288 279 272 270 269 270 272 276 280
239 241 241 246 253 256 257 259 259 261 263 264 266 267 266 268 263 260 260 261 276 293 295 297 294 283 291 292 296 298 297 299 297 292 289 285 280 273 269 269 269 272 275
240 247 250 251 255 258 258 258 261 263 264 268 268 267 268 268 265 263 259 259 258 270 283 288 288 288 290 293 297 302 298 299 299 296 289 284 279 273 268 265 264 266 269
236 241 246 251 256 259 259 259 263 267 267 272 273 271 272 272 271 267 262 261 262 263 275 283 283 283 282 284 291 291 288 285 287 290 286 280 275 271 268 265 262 262 263
234 240 248 254 259 264 261 261 269 275 270 273 276 276 275 276 273 271 265 263 265 265 269 280 284 284 279 281 284 286 292 293 289 288 284 278 272 267 264 261 259 259 258
235 244 250 257 262 265 267 266 266 269 270 271 275 276 276 275 274 269 264 265 267 270 271 277 285 285 280 277 282 285 286 283 285 284 283 278 272 267 262 259 255 255 254
236 248 254 259 263 266 269 271 271 269 270 272 273 271 271 272 272 268 266 265 267 271 275 279 284 286 283 275 273 287 292 285 284 286 281 274 270 268 263 258 254 250 249
240 248 259 266 269 271 269 266 265 266 271 278 276 271 273 284 286 285 280 273 272 275 282 284 286 287 286 286 282 282 287 292 286 271 273 276 278 275 269 262 256 250 246
240 251 258 266 273 276 289 295 297 282 282 282 281 281 284 290 293 299 301 299 296 294 294 289 289 287 286 281 279 277 280 285 287 280 305 292 282 273 263 252 251 250 245
238 251 259 264 269 278 294 299 304 306 285 281 282 286 296 297 306 289 289 294 294 296 298 295 290 286 284 280 275 274 267 264 265 272 293 285 267 265 258 252 249 244 243
234 248 258 264 269 280 297 304 307 316 282 279 278 279 283 285 289 290 282 274 264 273 285 286 276 277 277 272 262 262 264 266 266 261 246 266 267 260 261 250 248 243 239
233 243 253 260 266 281 300 303 310 291 284 281 280 284 295 289 298 312 320 297 291 286 295 301 303 303 303 304 299 284 270 269 276 270 227 242 264 267 258 247 240 238 235
231 242 252 254 262 272 295 306 311 287 291 288 286 290 310 314 319 331 330 312 306 302 300 306 306 305 301 296 297 287 265 262 268 274 242 252 270 283 277 242 215 217 225